Date String (YYYY-MM-DD hh:mm:ss) UTC,Instrument flags,absolute air pressure of the measurement (hPa),sample flow rate (lpm),inlet stack bypass flow (lpm),air temperature of the measurement (°C),ambient temperature measured by the external sensor (°C),aerosol sample conditioner tube jacket temperature (°C),OPC LED temperature (°C),internal box temperature (°C),relative humidity of the measurement (%),span deviation,mass concentration of particles derived from Lorenz-Mie calculation of OPC scattering (μg/m³),mass concentration of particles derived from Lorenz-Mie calculation of OPC scattering (μg/m³),mass concentration of particles derived from Lorenz-Mie calculation of OPC scattering (μg/m³)
DateTimeUTC,F1_M11,P_M11,Q1_M11,Q2_M11,T1_M11,T2_M11,T3_M11,T4_M11,T5_M11,U1_M11,ZSPAN_M11,X0_M11,X2_M11,X1_M11
2023-06-28 01:00:00,SystemResetWarning,0824.2,5.00,000.00,029.2,024.9,000.0,037.6,030.7,20.7,0000.0,0018.86,0005.63,0004.57
2023-06-28 01:01:00,SystemResetWarning,0824.3,5.00,000.00,029.2,025.4,000.0,037.6,030.6,21.1,0000.0,0019.46,0005.60,0004.57
2023-06-28 01:02:00,SystemResetWarning,0824.3,5.01,000.00,029.2,026.0,000.0,037.6,030.7,20.8,0000.0,0020.49,0005.62,0004.58
2023-06-28 01:03:00,SystemResetWarning,0824.3,5.00,000.00,029.2,026.5,000.0,037.6,030.8,20.3,0000.0,0020.53,0005.69,0004.59
2023-06-28 01:04:00,SystemResetWarning,0824.3,5.00,000.00,029.2,027.0,000.0,037.6,030.9,20.4,0000.0,0019.26,0005.69,0004.58
2023-06-28 01:05:00,SystemResetWarning,0824.3,5.00,000.00,029.3,027.4,000.0,037.6,031.0,19.3,0000.0,0017.67,0005.62,0004.56
2023-06-28 01:06:00,SystemResetWarning,0824.3,4.99,000.00,029.3,027.7,000.0,037.7,031.1,19.1,0000.0,0018.05,0005.58,0004.54
2023-06-28 01:07:00,SystemResetWarning,0824.3,4.99,000.00,029.4,027.2,000.0,037.7,031.1,19.5,0000.0,0018.55,0005.56,0004.53
2023-06-28 01:08:00,SystemResetWarning,0824.3,5.00,000.00,029.3,025.1,000.0,037.6,031.0,19.4,0000.0,0020.16,0005.55,0004.52
2023-06-28 01:09:00,SystemResetWarning,0824.3,5.02,000.00,029.3,024.4,000.0,037.6,030.9,19.2,0000.0,0020.04,0005.55,0004.51
2023-06-28 01:10:00,SystemResetWarning,0824.4,5.01,000.00,029.3,024.9,000.0,037.6,030.7,19.4,0000.0,0020.43,0005.55,0004.51
2023-06-28 01:11:00,SystemResetWarning,0824.3,4.99,000.00,029.2,025.4,000.0,037.6,030.6,20.1,0000.0,0019.69,0005.55,0004.51
2023-06-28 01:12:00,SystemResetWarning,0824.3,5.00,000.00,029.2,025.9,000.0,037.6,030.7,20.2,0000.0,0019.71,0005.60,0004.50
2023-06-28 01:13:00,SystemResetWarning,0824.4,5.00,000.00,029.2,026.4,000.0,037.6,030.8,20.6,0000.0,0018.52,0005.61,0004.49
2023-06-28 01:14:00,SystemResetWarning,0824.3,5.00,000.00,029.2,026.9,000.0,037.6,030.9,21.0,0000.0,0018.35,0005.56,0004.49
2023-06-28 01:15:00,SystemResetWarning,0824.2,4.99,000.00,029.3,027.3,000.0,037.6,031.0,20.9,0000.0,0018.12,0005.53,0004.49
2023-06-28 01:16:00,SystemResetWarning,0824.2,5.00,000.00,029.3,027.6,000.0,037.7,031.1,20.2,0000.0,0017.83,0005.59,0004.49
2023-06-28 01:17:00,SystemResetWarning,0824.2,5.00,000.00,029.4,027.9,000.0,037.7,031.1,19.8,0000.0,0016.98,0005.62,0004.50
2023-06-28 01:18:00,SystemResetWarning,0824.3,4.98,000.00,029.4,026.7,000.0,037.7,031.1,19.8,0000.0,0016.42,0005.66,0004.51
2023-06-28 01:19:00,SystemResetWarning,0824.4,5.01,000.00,029.3,024.8,000.0,037.6,030.9,20.7,0000.0,0015.10,0005.61,0004.51
2023-06-28 01:20:00,SystemResetWarning,0824.3,5.01,000.00,029.3,024.6,000.0,037.6,030.9,20.1,0000.0,0014.17,0005.58,0004.52
2023-06-28 01:21:00,SystemResetWarning,0824.4,5.00,000.00,029.2,025.1,000.0,037.6,030.7,20.5,0000.0,0013.44,0005.53,0004.52
2023-06-28 01:22:00,SystemResetWarning,0824.4,5.00,000.00,029.2,025.6,000.0,037.6,030.6,18.7,0000.0,0013.06,0005.51,0004.52
2023-06-28 01:23:00,SystemResetWarning,0824.4,5.00,000.00,029.2,026.1,000.0,037.6,030.7,17.3,0000.0,0013.73,0005.51,0004.52
2023-06-28 01:24:00,SystemResetWarning,0824.4,4.99,000.00,029.2,026.6,000.0,037.6,030.8,16.3,0000.0,0014.77,0005.55,0004.54
2023-06-28 01:25:00,SystemResetWarning,0824.4,5.01,000.00,029.2,027.0,000.0,037.6,030.9,13.5,0000.0,0016.64,0005.61,0004.53
2023-06-28 01:26:00,SystemResetWarning,0824.4,5.00,000.00,029.3,027.4,000.0,037.7,031.0,14.6,0000.0,0018.16,0005.68,0004.54
2023-06-28 01:27:00,SystemResetWarning,0824.5,4.99,000.00,029.3,027.8,000.0,037.7,031.1,13.5,0000.0,0018.96,0005.67,0004.54
2023-06-28 01:28:00,SystemResetWarning,0824.6,5.00,000.00,029.4,027.8,000.0,037.7,031.2,13.1,0000.0,0018.97,0005.64,0004.51
2023-06-28 01:29:00,SystemResetWarning,0824.5,5.00,000.00,029.4,026.0,000.0,037.7,031.0,13.9,0000.0,0018.42,0005.49,0004.42
2023-06-28 01:30:00,SystemResetWarning,0824.5,5.00,000.00,029.3,024.5,000.0,037.6,030.9,13.5,0000.0,0018.90,0005.40,0004.36
2023-06-28 01:31:00,SystemResetWarning,0824.5,5.02,000.00,029.3,024.8,000.0,037.6,030.9,13.5,0000.0,0018.64,0005.27,0004.24
2023-06-28 01:32:00,SystemResetWarning,0824.6,5.00,000.00,029.2,025.2,000.0,037.6,030.7,14.7,0000.0,0018.92,0005.17,0004.13
2023-06-28 01:33:00,SystemResetWarning,0824.6,4.99,000.00,029.2,025.7,000.0,037.6,030.7,15.4,0000.0,0019.51,0005.07,0004.02
2023-06-28 01:34:00,SystemResetWarning,0824.6,5.00,000.00,029.2,026.3,000.0,037.6,030.8,15.3,0000.0,0018.17,0004.86,0003.89
2023-06-28 01:35:00,SystemResetWarning,0824.7,5.01,000.00,029.2,026.8,000.0,037.7,030.9,14.7,0000.0,0016.62,0004.65,0003.77
2023-06-28 01:36:00,SystemResetWarning,0824.7,5.00,000.00,029.3,027.2,000.0,037.7,030.9,14.8,0000.0,0015.28,0004.46,0003.66
2023-06-28 01:37:00,SystemResetWarning,0824.7,4.99,000.00,029.3,027.5,000.0,037.7,031.0,13.9,0000.0,0015.39,0004.28,0003.53
2023-06-28 01:38:00,SystemResetWarning,0824.7,5.00,000.00,029.4,027.9,000.0,037.7,031.1,13.2,0000.0,0014.58,0004.14,0003.43
2023-06-28 01:39:00,SystemResetWarning,0824.7,4.99,000.00,029.4,027.4,000.0,037.7,031.2,13.3,0000.0,0014.82,0004.07,0003.39
2023-06-28 01:40:00,SystemResetWarning,0824.7,5.00,000.00,029.4,025.3,000.0,037.7,031.0,13.2,0000.0,0014.82,0004.10,0003.38
2023-06-28 01:41:00,SystemResetWarning,0824.7,5.01,000.00,029.3,024.4,000.0,037.6,030.9,12.0,0000.0,0014.93,0004.08,0003.36
2023-06-28 01:42:00,SystemResetWarning,0824.7,5.02,000.00,029.3,024.9,000.0,037.6,030.7,12.0,0000.0,0014.50,0004.05,0003.37
2023-06-28 01:43:00,SystemResetWarning,0824.7,5.00,000.00,029.2,025.3,000.0,037.6,030.6,12.3,0000.0,0013.91,0004.04,0003.37
2023-06-28 01:44:00,SystemResetWarning,0824.7,5.00,000.00,029.2,025.9,000.0,037.6,030.7,11.0,0000.0,0013.24,0003.98,0003.33
2023-06-28 01:45:00,SystemResetWarning,0824.8,5.00,000.00,029.2,026.4,000.0,037.6,030.8,11.4,0000.0,0012.89,0003.97,0003.31
2023-06-28 01:46:00,SystemResetWarning,0824.8,5.00,000.00,029.2,026.9,000.0,037.7,030.9,12.6,0000.0,0012.75,0003.94,0003.27
2023-06-28 01:47:00,SystemResetWarning,0824.9,5.00,000.00,029.3,027.3,000.0,037.7,031.0,12.1,0000.0,0012.98,0003.87,0003.23
2023-06-28 01:48:00,SystemResetWarning,0824.9,5.00,000.00,029.3,027.6,000.0,037.7,031.1,10.4,0000.0,0011.78,0003.86,0003.20
2023-06-28 01:49:00,SystemResetWarning,0824.9,4.99,000.00,029.4,027.4,000.0,037.7,031.2,10.0,0000.0,0011.65,0003.81,0003.14
2023-06-28 01:50:00,SystemResetWarning,0824.9,4.99,000.00,029.3,025.4,000.0,037.7,030.9,11.3,0000.0,0011.14,0003.76,0003.04
2023-06-28 01:51:00,SystemResetWarning,0824.9,5.01,000.00,029.3,024.3,000.0,037.6,030.7,11.4,0000.0,0011.14,0003.66,0002.90
2023-06-28 01:52:00,SystemResetWarning,0824.9,5.01,000.00,029.2,024.7,000.0,037.6,030.7,11.1,0000.0,0011.23,0003.54,0002.76
2023-06-28 01:53:00,SystemResetWarning,0824.9,4.99,000.00,029.2,025.2,000.0,037.6,030.5,10.3,0000.0,0010.77,0003.53,0002.67
2023-06-28 01:54:00,SystemResetWarning,0824.9,5.00,000.00,029.1,025.8,000.0,037.6,030.6,9.4,0000.0,0011.15,0003.48,0002.59
2023-06-28 01:55:00,SystemResetWarning,0824.9,4.99,000.00,029.2,026.3,000.0,037.6,030.7,10.3,0000.0,0010.53,0003.43,0002.52
2023-06-28 01:56:00,SystemResetWarning,0824.9,4.99,000.00,029.2,026.7,000.0,037.6,030.8,10.2,0000.0,0011.57,0003.42,0002.49
2023-06-28 01:57:00,SystemResetWarning,0824.9,5.01,000.00,029.2,027.1,000.0,037.6,030.9,9.9,0000.0,0012.32,0003.44,0002.49
2023-06-28 01:58:00,SystemResetWarning,0824.9,5.01,000.00,029.3,027.5,000.0,037.7,031.0,10.2,0000.0,0012.50,0003.44,0002.49
2023-06-28 01:59:00,SystemResetWarning,0824.9,5.00,000.00,029.3,027.8,000.0,037.7,031.1,11.0,0000.0,0011.77,0003.41,0002.52
